Wind_Speed
13 13 10 9 8 6 4 2 1 2 3 2 2 2 3 4 4 4 5 6 7 8 8 8 8 8 8 8 8 8 8 7 7 7 6 6 6 6 5 5 4 3 3 3
15 14 12 11 10 8 5 4 3 3 4 4 3 2 2 3 2 2 3 4 5 6 7 7 7 7 7 7 7 7 7 7 7 7 6 5 5 5 4 4 3 2 2 2
16 15 14 14 12 10 7 6 4 4 5 5 4 3 3 3 2 2 2 2 3 4 5 6 6 6 6 6 6 6 6 7 7 6 5 4 4 3 3 3 2 2 1 1
17 18 17 16 13 12 10 9 8 8 7 6 6 5 4 3 2 1 1 1 2 2 3 4 4 5 5 5 4 4 4 5 5 5 4 4 3 2 2 2 1 1 1 0
18 18 18 18 15 13 12 12 11 11 10 9 8 6 5 4 3 2 2 2 0 0 1 1 2 3 3 3 3 3 3 3 3 3 3 2 2 1 1 1 1 0 1 0
20 20 19 18 17 16 14 15 14 13 12 11 9 8 6 6 5 4 3 3 3 2 1 1 0 1 1 1 1 1 1 1 2 2 1 1 0 0 1 1 1 2 2 1
21 22 21 21 20 19 17 16 15 15 14 11 10 10 8 7 6 5 5 5 5 4 3 3 2 1 2 2 2 2 2 1 1 1 2 2 2 2 2 3 3 3 3 3
22 23 23 22 21 21 20 18 17 15 14 12 12 11 8 8 8 8 8 8 8 7 5 4 4 4 4 4 4 4 3 3 2 2 2 3 3 3 3 4 4 5 4 5
23 23 23 23 23 23 22 20 18 18 16 15 14 12 9 9 9 10 10 10 10 9 7 6 6 6 6 6 6 6 5 6 5 4 4 4 5 5 5 5 6 6 7 7
25 25 24 25 25 26 24 22 21 21 19 19 17 15 13 12 11 10 12 12 12 11 10 9 8 8 7 8 8 8 7 7 7 6 6 6 6 6 6 7 7 7 8 8
26 26 26 27 27 27 26 24 24 23 23 21 19 17 15 14 13 12 13 14 13 13 13 12 11 10 10 9 9 9 9 8 8 7 7 7 7 7 7 8 8 9 10 10
27 28 27 28 28 29 28 27 26 25 24 23 23 19 17 17 16 15 14 14 14 14 15 14 13 13 12 11 10 9 9 9 9 10 10 10 9 9 10 10 11 11 12 13
29 30 29 29 30 30 30 29 28 27 27 26 25 22 19 19 19 17 16 16 15 15 15 15 15 15 14 14 13 12 12 12 12 12 12 12 12 12 12 13 13 14 15 15
32 32 32 31 31 31 31 31 30 30 30 29 27 24 21 21 20 19 19 19 17 17 17 17 17 17 16 16 15 14 14 14 14 14 14 14 14 14 15 15 16 17 17 17
32 33 33 32 32 32 33 33 32 32 32 31 28 26 24 23 23 22 22 22 21 20 19 19 18 17 18 18 18 18 17 17 16 16 16 16 16 17 17 18 18 19 19 19
33 34 34 34 33 33 34 34 33 33 33 32 30 28 25 25 25 24 24 23 23 22 21 20 20 20 20 20 20 20 19 18 18 18 19 19 19 20 20 20 21 21 20 21
35 35 35 35 34 34 35 34 34 34 33 32 31 29 27 26 25 25 25 26 25 25 24 23 23 23 23 23 23 23 22 21 21 21 22 23 23 23 24 24 24 24 23 22
35 36 36 35 35 37 35 34 34 34 34 33 31 30 29 28 27 27 26 26 26 26 27 27 26 25 25 25 25 25 25 24 24 24 24 25 25 26 27 27 26 26 26 25
35 36 36 36 36 36 35 35 34 34 34 33 33 32 31 30 30 29 28 27 27 27 28 28 28 27 27 27 27 27 27 27 28 27 27 27 27 28 28 28 28 28 27 27
35 35 35 35 36 36 34 34 34 34 34 33 33 32 32 32 32 31 31 30 30 30 30 29 29 28 28 28 29 30 30 30 30 29 28 29 30 31 30 29 29 29 29 30
33 35 35 36 35 35 35 34 35 36 35 34 34 33 33 33 32 32 32 32 32 32 32 31 30 30 29 30 31 31 32 32 32 31 31 31 32 32 32 31 31 32 32 32
33 34 35 36 36 36 35 35 35 35 35 35 35 34 34 33 33 33 33 34 33 34 34 33 33 32 32 32 33 33 33 33 34 34 34 34 35 34 34 33 33 34 34 35
33 34 34 35 36 35 35 36 36 37 37 37 37 36 36 35 35 34 34 35 35 35 36 35 34 34 34 34 35 35 34 34 35 36 36 35 36 36 36 36 36 36 37 37
32 33 34 34 34 34 35 36 36 37 38 39 39 38 38 37 36 36 36 36 36 37 37 36 36 35 36 36 36 36 36 36 36 36 37 37 37 37 37 37 37 38 38 38
32 33 34 34 34 35 35 36 36 36 37 39 39 39 39 39 38 38 37 37 38 38 38 37 37 36 36 36 36 37 37 37 37 37 37 37 37 38 37 37 38 38 38 38
31 33 34 34 35 36 36 37 37 37 38 38 38 38 38 39 39 38 37 38 38 39 38 39 38 38 37 37 37 37 37 37 37 37 37 37 37 37 37 38 38 37 37 38
Wind_Direction
216 215 211 207 200 195 181 178 179 165 195 184 130 122 122 118 94 85 86 85 84 78 77 76 74 78 82 90 93 89 91 95 94 95 96 94 94 97 101 104 108 108 98 78
220 216 214 212 204 202 200 202 207 212 218 217 208 189 163 146 122 107 95 85 83 78 79 79 75 77 85 89 94 95 95 97 99 100 100 100 100 98 92 87 89 95 94 82
220 216 216 216 211 212 218 221 232 229 224 223 229 212 183 173 162 141 114 93 85 76 79 83 79 79 80 86 95 93 100 101 101 102 104 101 100 102 94 80 77 78 87 54
217 216 218 218 219 224 227 233 235 235 230 231 240 235 217 216 201 187 175 124 88 77 75 84 84 78 77 81 93 95 99 107 107 108 105 96 93 92 87 83 77 86 33 32
218 219 222 219 222 229 229 234 237 238 239 237 238 242 240 228 219 223 234 235 238 18 41 70 83 78 73 71 79 84 91 113 123 118 110 92 83 82 70 51 44 6 340 308
220 221 222 220 225 231 232 238 241 241 245 244 241 243 233 232 230 227 233 240 252 271 252 229 138 82 51 41 36 39 49 111 157 166 181 170 75 307 289 305 317 319 310 306
222 223 223 223 226 231 235 241 244 245 246 246 244 246 239 232 237 244 243 239 244 249 245 240 249 259 273 278 288 308 290 223 201 225 245 247 264 284 280 286 286 293 288 292
225 225 226 227 227 232 235 241 247 249 248 249 249 251 242 233 241 249 252 248 247 252 252 254 259 267 265 269 266 269 269 245 234 247 261 269 272 277 281 283 287 289 291 296
228 226 227 228 228 233 235 239 244 246 248 250 249 252 241 243 252 248 249 251 252 251 254 258 261 265 264 267 268 264 265 253 250 259 269 273 279 280 278 279 285 290 292 293
230 229 227 229 230 231 235 237 238 242 248 251 253 255 256 255 258 254 247 248 252 253 255 261 267 268 267 271 273 272 262 262 254 259 273 285 281 282 275 275 281 289 292 292
231 231 228 229 230 231 233 236 240 244 250 255 257 258 261 261 259 257 252 248 250 255 258 266 269 270 270 271 274 269 268 269 265 266 273 282 284 282 274 276 281 284 287 290
234 233 232 231 231 232 235 237 240 244 251 257 260 260 259 259 260 257 253 252 252 256 259 263 266 264 267 268 273 274 272 275 276 274 274 276 276 275 275 275 279 279 282 287
236 236 235 233 234 234 236 237 240 244 250 255 259 260 257 257 258 258 255 254 254 256 259 264 267 265 266 268 269 269 268 271 273 277 275 274 274 274 275 275 276 278 281 283
238 239 240 239 238 238 238 239 242 245 249 253 256 259 257 257 257 257 255 254 255 257 260 263 265 266 265 266 266 266 270 273 271 273 275 274 274 275 275 276 277 278 281 282
240 241 242 242 240 239 238 239 242 246 249 253 255 256 257 257 257 256 255 254 256 258 260 263 264 265 266 266 267 268 270 272 273 274 276 277 273 275 277 278 279 279 281 283
243 244 244 243 242 240 240 240 242 246 249 252 253 254 255 257 256 255 255 256 256 257 259 261 261 262 266 269 270 270 272 272 272 273 274 276 275 276 278 277 282 282 281 282
244 246 245 245 244 242 241 241 243 245 248 250 253 253 253 255 254 254 254 256 257 257 259 259 261 263 267 269 270 272 271 273 273 272 273 274 274 274 275 277 279 283 284 281
243 245 246 247 246 245 243 244 244 245 246 248 250 253 254 253 253 253 254 254 254 256 259 259 262 264 266 267 270 273 274 275 275 275 276 277 276 276 275 276 277 279 280 282
243 244 246 248 250 249 245 244 244 244 245 247 249 251 252 253 252 252 254 254 254 257 260 261 262 264 266 267 269 269 271 274 274 274 275 276 276 276 275 274 276 278 281 284
243 245 246 248 251 250 246 244 245 246 246 246 248 250 252 254 254 254 256 256 256 257 260 262 263 264 267 269 270 270 271 272 275 274 272 275 276 276 274 274 276 279 281 282
242 244 247 249 252 252 249 246 245 246 248 249 250 250 252 253 254 254 255 256 256 257 259 262 263 265 266 268 270 270 270 270 274 274 272 274 275 275 274 275 277 278 279 280
242 245 247 249 252 253 251 249 247 248 250 250 251 250 251 252 253 253 255 256 257 257 259 261 263 265 266 267 268 269 270 271 272 273 273 274 275 276 277 277 278 279 278 278
245 246 248 250 253 254 252 251 250 249 250 251 251 252 251 252 252 254 256 258 258 258 260 262 263 265 266 266 267 269 270 271 271 273 274 276 276 276 278 279 279 280 279 278
246 247 248 249 251 252 252 252 252 252 252 253 253 254 253 253 253 253 256 258 259 260 261 262 263 264 265 266 268 269 270 271 271 272 273 274 275 276 277 278 279 281 281 280
249 249 249 249 249 251 251 252 252 253 253 254 254 254 254 254 254 254 255 257 259 260 261 262 263 263 264 266 268 268 269 270 271 272 273 274 274 275 276 277 279 279 280 280
251 251 250 250 251 252 252 253 254 254 254 254 254 254 254 255 255 255 255 256 257 259 261 262 262 263 264 266 268 269 270 271 271 271 272 273 274 275 275 276 277 277 279 281
Height
5889 5891 5892 5894 5895 5896 5896 5897 5897 5897 5897 5897 5896 5897 5898 5898 5898 5898 5897 5896 5896 5895 5895 5894 5894 5893 5893 5892 5892 5892 5892 5892 5892 5892 5893 5893 5893 5893 5894 5894 5894 5894 5894 5894
5888 5890 5892 5892 5893 5894 5895 5896 5897 5898 5897 5897 5897 5897 5898 5898 5898 5898 5898 5897 5896 5896 5896 5895 5895 5894 5894 5894 5894 5894 5893 5893 5893 5894 5894 5894 5894 5894 5894 5894 5895 5895 5894 5894
5886 5889 5889 5891 5892 5893 5894 5895 5896 5897 5896 5896 5897 5897 5898 5898 5899 5899 5899 5898 5897 5897 5896 5896 5896 5895 5895 5895 5895 5895 5895 5894 5895 5895 5895 5895 5895 5895 5895 5895 5895 5895 5895 5894
5883 5885 5887 5888 5890 5891 5893 5894 5895 5895 5895 5896 5897 5897 5898 5898 5899 5899 5899 5899 5898 5897 5897 5896 5896 5896 5896 5896 5896 5896 5895 5895 5895 5895 5895 5896 5896 5896 5895 5895 5895 5895 5894 5894
5880 5882 5884 5886 5888 5889 5891 5892 5892 5893 5894 5894 5895 5895 5897 5897 5898 5898 5899 5898 5898 5897 5897 5897 5896 5896 5896 5896 5896 5896 5896 5896 5896 5896 5896 5896 5896 5895 5895 5895 5895 5894 5894 5894
5877 5879 5881 5884 5886 5887 5888 5890 5890 5891 5892 5893 5894 5894 5895 5896 5896 5897 5897 5897 5897 5897 5897 5897 5896 5896 5896 5896 5896 5896 5896 5896 5896 5896 5896 5895 5895 5895 5895 5895 5894 5894 5893 5893
5873 5876 5878 5880 5882 5884 5886 5888 5888 5888 5889 5891 5892 5892 5894 5894 5895 5895 5896 5896 5896 5896 5896 5896 5896 5896 5896 5895 5895 5895 5895 5895 5895 5895 5895 5895 5895 5895 5895 5894 5894 5893 5893 5893
5869 5872 5875 5876 5879 5881 5882 5884 5886 5886 5887 5888 5889 5889 5893 5893 5892 5893 5893 5894 5894 5895 5895 5895 5895 5895 5895 5894 5894 5893 5893 5894 5894 5894 5894 5894 5894 5894 5894 5893 5893 5892 5892 5891
5865 5868 5871 5873 5875 5877 5878 5880 5882 5883 5884 5885 5886 5888 5890 5890 5890 5890 5891 5892 5893 5893 5893 5893 5893 5893 5893 5893 5892 5892 5892 5892 5892 5893 5892 5892 5892 5892 5892 5892 5892 5891 5891 5890
5860 5864 5867 5869 5871 5872 5875 5876 5878 5879 5880 5881 5883 5884 5886 5887 5888 5888 5889 5890 5890 5891 5891 5891 5892 5892 5891 5891 5891 5890 5890 5890 5890 5891 5891 5891 5891 5890 5890 5890 5890 5889 5889 5888
5855 5859 5862 5864 5865 5867 5870 5872 5873 5875 5877 5878 5879 5883 5883 5884 5885 5885 5886 5887 5888 5888 5889 5889 5889 5889 5889 5889 5889 5888 5888 5888 5888 5889 5889 5889 5888 5888 5888 5887 5887 5887 5886 5886
5849 5852 5855 5858 5860 5862 5864 5866 5869 5871 5872 5873 5874 5880 5879 5880 5881 5882 5883 5884 5884 5885 5885 5886 5886 5886 5886 5886 5886 5886 5886 5886 5886 5886 5886 5886 5885 5885 5885 5884 5884 5884 5883 5882
5843 5846 5848 5851 5855 5857 5858 5860 5863 5865 5867 5868 5870 5875 5875 5876 5876 5878 5879 5880 5880 5881 5882 5882 5882 5883 5883 5883 5883 5883 5883 5883 5883 5883 5883 5883 5882 5882 5881 5881 5880 5880 5879 5878
5836 5838 5842 5845 5848 5850 5852 5855 5857 5859 5861 5862 5865 5868 5870 5871 5872 5873 5874 5876 5876 5877 5878 5878 5879 5879 5879 5879 5879 5879 5879 5879 5879 5879 5879 5879 5879 5878 5877 5877 5876 5876 5875 5874
5828 5831 5833 5837 5840 5842 5845 5848 5850 5853 5855 5857 5859 5861 5864 5865 5866 5868 5869 5870 5871 5873 5873 5874 5874 5874 5874 5875 5875 5874 5875 5875 5875 5875 5875 5875 5874 5874 5873 5873 5872 5871 5870 5869
5819 5822 5825 5828 5832 5834 5837 5841 5843 5846 5848 5850 5852 5855 5857 5859 5860 5862 5863 5865 5866 5867 5868 5868 5869 5869 5869 5870 5870 5870 5870 5870 5870 5870 5870 5869 5869 5869 5868 5868 5867 5866 5864 5864
5811 5814 5817 5820 5823 5825 5829 5833 5836 5838 5840 5843 5845 5849 5851 5852 5854 5856 5857 5859 5860 5861 5862 5863 5863 5864 5864 5864 5865 5865 5865 5864 5864 5864 5864 5863 5863 5863 5862 5862 5861 5860 5859 5858
5803 5806 5808 5811 5815 5817 5824 5825 5828 5830 5833 5836 5838 5841 5843 5846 5847 5849 5851 5852 5853 5855 5855 5856 5857 5858 5858 5858 5858 5858 5858 5858 5858 5857 5857 5856 5856 5856 5856 5855 5855 5853 5852 5851
5795 5798 5800 5803 5805 5808 5813 5817 5819 5822 5825 5828 5830 5833 5835 5837 5839 5842 5843 5845 5846 5847 5848 5849 5850 5851 5851 5851 5851 5851 5851 5851 5851 5850 5850 5850 5849 5848 5848 5848 5847 5846 5845 5844
5786 5789 5792 5794 5796 5799 5806 5808 5811 5815 5816 5820 5822 5825 5827 5829 5831 5834 5835 5836 5838 5839 5840 5841 5842 5843 5843 5843 5843 5843 5843 5843 5843 5843 5843 5842 5841 5840 5840 5839 5839 5839 5838 5837
5778 5781 5783 5786 5787 5791 5796 5799 5802 5806 5809 5811 5813 5816 5818 5820 5823 5825 5826 5828 5829 5830 5831 5833 5833 5834 5835 5835 5835 5835 5835 5836 5835 5834 5834 5834 5833 5832 5831 5831 5831 5830 5830 5829
5770 5773 5776 5778 5780 5785 5787 5789 5792 5795 5799 5801 5803 5806 5808 5810 5813 5815 5817 5818 5820 5821 5822 5824 5824 5825 5826 5826 5826 5826 5826 5827 5826 5826 5825 5825 5823 5822 5821 5821 5821 5821 5820 5819
5762 5765 5767 5770 5774 5775 5777 5779 5782 5785 5788 5790 5793 5795 5798 5800 5802 5805 5807 5809 5810 5812 5813 5814 5815 5815 5816 5816 5816 5816 5817 5817 5817 5816 5816 5815 5813 5813 5812 5812 5811 5811 5810 5809
5753 5756 5758 5760 5762 5765 5767 5769 5772 5774 5777 5780 5783 5785 5788 5790 5792 5794 5796 5798 5800 5801 5803 5804 5805 5805 5806 5806 5806 5806 5807 5806 5806 5806 5806 5805 5804 5803 5802 5802 5801 5800 5799 5798
5745 5747 5749 5751 5753 5755 5758 5760 5762 5764 5767 5769 5772 5774 5777 5779 5782 5784 5786 5787 5789 5790 5792 5793 5794 5795 5795 5795 5796 5796 5796 5796 5796 5796 5795 5794 5793 5792 5792 5791 5790 5789 5788 5786
5736 5738 5740 5742 5744 5746 5748 5750 5752 5754 5756 5758 5761 5763 5765 5768 5771 5773 5775 5776 5778 5779 5780 5782 5783 5784 5784 5785 5785 5785 5785 5785 5784 5784 5784 5783 5782 5781 5781 5780 5779 5777 5776 5775